Location: Appleton
(44.2618°N, 88.4157°W)
Time: 18:10:22
(UTC+00:00)

Tiros 1 despin weight - Pass Details

Date: 07 March 2021
Orbit: 593 x 641 km, 48.2° (Epoch: 11 April)

Event Time Altitude Azimuth Distance (km) Brightness Sun altitude
Exits shadow 11:15:52 13° 233° (SW) 1,824 ? -12.3°
Maximum altitude 11:16:18 13° 227° (SW) 1,815 ? -12.2°
Drops below altitude 10° 11:18:29 10° 199° (SSW) 2,023 ? -11.8°
Sets 11:21:57 0° 172° (S) 2,927 ? -11.2°
